Regional Weather Roundup
Issued by NWS

Home | Current Version | Previous Version | Graphics & Text | Print | Product List | Glossary On
Versions: 1 2 3 4 5 6 7 8 9 10 11 12 13 14 15 16 17 18 19 20 21 22 23 24 25 26 27 28 29 30 31 32 33 34 35 36 37 38 39 40 41 42 43 44 45 46 47 48 49 50
000
ASUS43 KLSX 292159
RWRMO

WEATHER SUMMARY FOR MISSOURI
NATIONAL WEATHER SERVICE SPRINGFIELD MO
400 PM CST THU JAN 29 2015

NOTE: "FAIR" INDICATES FEW OR NO CLOUDS BELOW 12,000 FEET WITH NO
       SIGNIFICANT WEATHER AND/OR OBSTRUCTIONS TO VISIBILITY.
       CURRENT SKY AND/OR WEATHER CONDITIONS ARE NOT AVAILABLE FOR
       CHILLICOTHE AND FARMINGTON.

MOZ001>031-035>038-043-044-053-054-292300-
...NORTHERN AND WESTERN MISSOURI...

CITY           SKY/WX    TMP DP  RH WIND       PRES   REMARKS
KANSAS CTY INT PTSUNNY   40  26  57 N17       30.40R
KANSAS C DTWN  CLOUDY    43  25  49 N17G24    30.40R
LEE`S SUMMIT   CLOUDY    42  26  53 NW20G26   30.40R
ST JOSEPH      CLOUDY    40  25  55 N20G26    30.43R
CHILLICOTHE      N/A     40  26  57 NW9G18    30.38R
KIRKSVILLE     FLURRIES  36  26  67 NW16G26   30.33R WCI  26

$$
MOZ066>068-077>081-088>096-101>105-292300-
...SOUTHWEST MISSOURI...

CITY           SKY/WX    TMP DP  RH WIND       PRES   REMARKS
SPRINGFIELD    CLOUDY    42  27  55 N20       30.34R
JOPLIN         PTSUNNY   47  28  47 N16       30.40R

$$
MOZ032>034-039>042-045>050-055>058-069>072-292300-
...CENTRAL MISSOURI...

CITY           SKY/WX    TMP DP  RH WIND       PRES   REMARKS
COLUMBIA       CLOUDY    40  29  64 NW23G29   30.31R WCI  30
JEFFERSON CITY CLOUDY    42  28  57 NW14G21   30.32R
ROLLA          CLOUDY    39  29  67 NW12      30.28R
SEDALIA        CLOUDY    42  28  57 NW22G30   30.36R
OSAGE BEACH    CLOUDY    43  27  52 NW12G17   30.32S

$$
MOZ051-052-059>065-292300-
...EAST CENTRAL MISSOURI...

CITY           SKY/WX    TMP DP  RH WIND       PRES   REMARKS
ST LOUIS INTL  CLOUDY    42  30  62 NW18G26   30.25R
SPIRIT OF STL  CLOUDY    42  30  62 NW14      30.25R
ST CHARLES     CLOUDY    41  30  65 NW21G31   30.25R

$$
MOZ072>076-082>087-097>100-106>115-292300-
...SOUTH CENTRAL AND SOUTHEAST MISSOURI...

CITY           SKY/WX    TMP DP  RH WIND       PRES   REMARKS
CAPE GIRARDEAU CLOUDY    43  32  65 NW18      30.24R
FARMINGTON     CLOUDY    39  27  60 NW13      30.28R
POPLAR BLUFF   CLOUDY    44  31  60 NW20      30.25R
WEST PLAINS    CLOUDY    40  28  62 NW15G25   30.30R

$$


USA.gov is the U.S. government's official web portal to all federal, state and local government web resources and services.